Location: ??
(35.5052°N, 139.7262°E)
Time: 03:42:46
(UTC+00:00)

Cosmos 2061 Rocket - Pass Details

Date: 20 June 2021
Orbit: 965 x 1013 km, 82.9° (Epoch: 26 July)

Event Time Altitude Azimuth Distance (km) Brightness Sun altitude
Rises 12:47:06 0° 348° (NNW) 3,751 8.3 -25.0°
Reaches altitude 10° 12:49:41 10° 345° (NNW) 2,794 7.4 -25.3°
Maximum altitude 12:55:56 56° 269° (W) 1,176 4.5 -25.9°
Enters shadow 12:58:01 39° 214° (SW) 1,447 4.6 -26.1°
